contact:dominique.lefevre@mio.osupytheas.fr, maurice.libes@osupytheas.fr, didier.mallarino@osupytheas.fr
Project:EMSO http://www.emso-fr.org/EMSO-France
Depth: 2436.0 m
Title:EMSO Ligure Ouest : Data MII capteur CSTAR
DateTime,Latitude,Longitude,Instrument_Serial,Reference_Counts,Signal_Counts,Corrected_Signal_raw_counts,Calculated_Beam_c_inverse_meters,Internal_thermistor_counts
DateTime,Latitude,Longitude,Instrument_Serial,Reference_Counts,Signal_Counts,Corrected_Signal_raw_counts,Calculated_Beam_c_inverse_meters,Internal_thermistor_counts
2019-09-12T00:01:17,42.805,6.029,CST-1368DR,8016,11226,15397,0.056,551
2019-09-12T00:04:18,42.805,6.029,CST-1368DR,8016,11227,15398,0.056,551
2019-09-12T00:07:20,42.805,6.029,CST-1368DR,8016,11228,15400,0.056,551
2019-09-12T00:10:22,42.805,6.029,CST-1368DR,8016,11226,15397,0.056,551
2019-09-12T00:13:23,42.805,6.029,CST-1368DR,8016,11228,15400,0.056,551
2019-09-12T00:16:25,42.805,6.029,CST-1368DR,8016,11228,15399,0.056,551
2019-09-12T00:19:27,42.805,6.029,CST-1368DR,8016,11228,15399,0.056,551
2019-09-12T00:22:28,42.805,6.029,CST-1368DR,8016,11229,15400,0.056,551
2019-09-12T00:25:30,42.805,6.029,CST-1368DR,8016,11229,15400,0.056,551
2019-09-12T00:28:32,42.805,6.029,CST-1368DR,8016,11228,15400,0.056,551
2019-09-12T00:31:33,42.805,6.029,CST-1368DR,8016,11228,15400,0.056,551
2019-09-12T00:34:35,42.805,6.029,CST-1368DR,8016,11226,15397,0.056,551
2019-09-12T00:37:36,42.805,6.029,CST-1368DR,8016,11225,15395,0.057,551
2019-09-12T00:40:38,42.805,6.029,CST-1368DR,8016,11229,15400,0.056,551
2019-09-12T00:43:40,42.805,6.029,CST-1368DR,8016,11228,15399,0.056,551
2019-09-12T00:46:41,42.805,6.029,CST-1368DR,8016,11227,15398,0.056,551
2019-09-12T00:49:43,42.805,6.029,CST-1368DR,8016,11228,15399,0.056,551
2019-09-12T00:52:45,42.805,6.029,CST-1368DR,8016,11228,15399,0.056,551
2019-09-12T00:55:46,42.805,6.029,CST-1368DR,8016,11227,15398,0.056,551
2019-09-12T00:58:48,42.805,6.029,CST-1368DR,8016,11227,15398,0.056,551
2019-09-12T01:01:50,42.805,6.029,CST-1368DR,8016,11228,15400,0.056,551
2019-09-12T01:04:51,42.805,6.029,CST-1368DR,8016,11228,15399,0.056,551
2019-09-12T01:07:53,42.805,6.029,CST-1368DR,8016,11227,15397,0.056,551
2019-09-12T01:10:55,42.805,6.029,CST-1368DR,8016,11227,15398,0.056,551
2019-09-12T01:13:56,42.805,6.029,CST-1368DR,8016,11227,15398,0.056,551
2019-09-12T01:16:58,42.805,6.029,CST-1368DR,8016,11228,15399,0.056,551
2019-09-12T01:20:00,42.805,6.029,CST-1368DR,8015,11201,15365,0.065,551
2019-09-12T01:23:01,42.805,6.029,CST-1368DR,8015,11227,15400,0.056,551
2019-09-12T01:26:03,42.805,6.029,CST-1368DR,8015,11227,15400,0.056,550
2019-09-12T01:29:04,42.805,6.029,CST-1368DR,8015,11228,15401,0.055,551
2019-09-12T01:32:06,42.805,6.029,CST-1368DR,8015,11226,15398,0.056,551
2019-09-12T01:35:08,42.805,6.029,CST-1368DR,8015,11227,15400,0.056,551
2019-09-12T01:38:09,42.805,6.029,CST-1368DR,8015,11226,15399,0.056,551
2019-09-12T01:41:11,42.805,6.029,CST-1368DR,8015,11224,15396,0.057,551
2019-09-12T01:44:13,42.805,6.029,CST-1368DR,8015,11226,15398,0.056,551
2019-09-12T01:47:14,42.805,6.029,CST-1368DR,8015,11227,15399,0.056,551
2019-09-12T01:50:16,42.805,6.029,CST-1368DR,8015,11227,15400,0.056,551
2019-09-12T01:53:18,42.805,6.029,CST-1368DR,8015,11227,15400,0.056,551
2019-09-12T01:56:19,42.805,6.029,CST-1368DR,8015,11227,15399,0.056,551
2019-09-12T01:59:21,42.805,6.029,CST-1368DR,8015,11228,15402,0.055,551
2019-09-12T02:02:23,42.805,6.029,CST-1368DR,8015,11226,15399,0.056,551
2019-09-12T02:05:24,42.805,6.029,CST-1368DR,8015,11227,15399,0.056,551
2019-09-12T02:08:26,42.805,6.029,CST-1368DR,8015,11227,15400,0.056,551
2019-09-12T02:11:28,42.805,6.029,CST-1368DR,8015,11226,15399,0.056,551
2019-09-12T02:14:29,42.805,6.029,CST-1368DR,8015,11227,15400,0.056,551
2019-09-12T02:17:31,42.805,6.029,CST-1368DR,8015,11227,15400,0.056,551
2019-09-12T02:20:33,42.805,6.029,CST-1368DR,8015,11227,15400,0.056,550
2019-09-12T02:23:34,42.805,6.029,CST-1368DR,8015,11225,15397,0.056,551
2019-09-12T02:26:36,42.805,6.029,CST-1368DR,8015,11225,15397,0.056,551
2019-09-12T02:29:38,42.805,6.029,CST-1368DR,8015,11228,15401,0.055,551
2019-09-12T02:32:39,42.805,6.029,CST-1368DR,8015,11227,15400,0.056,550
2019-09-12T02:35:41,42.805,6.029,CST-1368DR,8015,11227,15400,0.056,550
2019-09-12T02:38:43,42.805,6.029,CST-1368DR,8015,11227,15399,0.056,551
2019-09-12T02:41:44,42.805,6.029,CST-1368DR,8015,11226,15399,0.056,551
2019-09-12T02:44:46,42.805,6.029,CST-1368DR,8015,11227,15400,0.056,551
2019-09-12T02:47:48,42.805,6.029,CST-1368DR,8015,11227,15400,0.056,551
2019-09-12T02:50:49,42.805,6.029,CST-1368DR,8015,11227,15399,0.056,551
2019-09-12T02:53:51,42.805,6.029,CST-1368DR,8015,11227,15400,0.056,551
2019-09-12T02:56:53,42.805,6.029,CST-1368DR,8015,11226,15399,0.056,551
2019-09-12T02:59:54,42.805,6.029,CST-1368DR,8015,11228,15401,0.055,551
2019-09-12T03:02:56,42.805,6.029,CST-1368DR,8015,11227,15400,0.056,550
2019-09-12T03:05:58,42.805,6.029,CST-1368DR,8015,11225,15397,0.056,551
2019-09-12T03:08:59,42.805,6.029,CST-1368DR,8015,11226,15399,0.056,551
2019-09-12T03:12:01,42.805,6.029,CST-1368DR,8015,11227,15400,0.056,551
2019-09-12T03:15:02,42.805,6.029,CST-1368DR,8015,11226,15398,0.056,551
2019-09-12T03:18:04,42.805,6.029,CST-1368DR,8015,11226,15398,0.056,551
2019-09-12T03:21:06,42.805,6.029,CST-1368DR,8015,11227,15400,0.056,550
2019-09-12T03:24:07,42.805,6.029,CST-1368DR,8015,11226,15399,0.056,551
2019-09-12T03:27:09,42.805,6.029,CST-1368DR,8015,11226,15398,0.056,551
2019-09-12T03:30:11,42.805,6.029,CST-1368DR,8015,11226,15399,0.056,551
2019-09-12T03:33:12,42.805,6.029,CST-1368DR,8015,11226,15399,0.056,551
2019-09-12T03:36:14,42.805,6.029,CST-1368DR,8015,11226,15399,0.056,550
2019-09-12T03:39:16,42.805,6.029,CST-1368DR,8015,11224,15396,0.057,551
2019-09-12T03:42:17,42.805,6.029,CST-1368DR,8015,11226,15399,0.056,551
2019-09-12T03:45:19,42.805,6.029,CST-1368DR,8015,11226,15398,0.056,551
2019-09-12T03:48:21,42.805,6.029,CST-1368DR,8015,11227,15399,0.056,551
2019-09-12T03:51:22,42.805,6.029,CST-1368DR,8015,11227,15400,0.056,551
2019-09-12T03:54:24,42.805,6.029,CST-1368DR,8015,11226,15399,0.056,551
2019-09-12T03:57:26,42.805,6.029,CST-1368DR,8015,11226,15399,0.056,551
2019-09-12T04:00:27,42.805,6.029,CST-1368DR,8015,11227,15399,0.056,551
2019-09-12T04:03:29,42.805,6.029,CST-1368DR,8015,11226,15398,0.056,551
2019-09-12T04:06:31,42.805,6.029,CST-1368DR,8014,11225,15399,0.056,551
2019-09-12T04:09:32,42.805,6.029,CST-1368DR,8015,11226,15399,0.056,551
2019-09-12T04:12:34,42.805,6.029,CST-1368DR,8014,11226,15400,0.056,551
2019-09-12T04:15:35,42.805,6.029,CST-1368DR,8015,11226,15399,0.056,551
2019-09-12T04:18:37,42.805,6.029,CST-1368DR,8014,11226,15400,0.056,551
2019-09-12T04:21:39,42.805,6.029,CST-1368DR,8014,11227,15402,0.055,551
2019-09-12T04:24:40,42.805,6.029,CST-1368DR,8014,11226,15400,0.056,551
2019-09-12T04:27:42,42.805,6.029,CST-1368DR,8014,11226,15400,0.056,551
2019-09-12T04:30:44,42.805,6.029,CST-1368DR,8014,11225,15399,0.056,550
2019-09-12T04:33:45,42.805,6.029,CST-1368DR,8014,11225,15399,0.056,551
2019-09-12T04:36:47,42.805,6.029,CST-1368DR,8014,11226,15400,0.056,551
2019-09-12T04:39:49,42.805,6.029,CST-1368DR,8014,11226,15400,0.056,551
2019-09-12T04:42:50,42.805,6.029,CST-1368DR,8014,11224,15397,0.056,551
2019-09-12T04:45:52,42.805,6.029,CST-1368DR,8014,11226,15400,0.056,551
2019-09-12T04:48:54,42.805,6.029,CST-1368DR,8014,11226,15401,0.055,550
2019-09-12T04:51:55,42.805,6.029,CST-1368DR,8014,11226,15400,0.056,551
2019-09-12T04:54:57,42.805,6.029,CST-1368DR,8014,11226,15400,0.056,551
2019-09-12T04:57:59,42.805,6.029,CST-1368DR,8014,11226,15400,0.056,551
2019-09-12T05:01:00,42.805,6.029,CST-1368DR,8014,11227,15401,0.055,551
2019-09-12T05:04:02,42.805,6.029,CST-1368DR,8014,11226,15400,0.056,551
2019-09-12T05:07:04,42.805,6.029,CST-1368DR,8014,11227,15401,0.055,551
2019-09-12T05:10:05,42.805,6.029,CST-1368DR,8014,11226,15400,0.056,551
2019-09-12T05:13:07,42.805,6.029,CST-1368DR,8014,11226,15400,0.056,551
2019-09-12T05:16:08,42.805,6.029,CST-1368DR,8014,11226,15400,0.056,550
2019-09-12T05:19:10,42.805,6.029,CST-1368DR,8014,11225,15399,0.056,551
2019-09-12T05:22:12,42.805,6.029,CST-1368DR,8014,11226,15400,0.056,551
2019-09-12T05:25:13,42.805,6.029,CST-1368DR,8014,11226,15401,0.055,551
2019-09-12T05:28:15,42.805,6.029,CST-1368DR,8014,11225,15399,0.056,550
2019-09-12T05:31:17,42.805,6.029,CST-1368DR,8014,11226,15400,0.056,551
2019-09-12T05:34:19,42.805,6.029,CST-1368DR,8014,11225,15399,0.056,551
2019-09-12T05:37:20,42.805,6.029,CST-1368DR,8014,11227,15401,0.055,551
2019-09-12T05:40:22,42.805,6.029,CST-1368DR,8014,11226,15400,0.056,551
2019-09-12T05:43:24,42.805,6.029,CST-1368DR,8014,11225,15399,0.056,551
2019-09-12T05:46:25,42.805,6.029,CST-1368DR,8014,11226,15400,0.056,551
2019-09-12T05:49:27,42.805,6.029,CST-1368DR,8014,11226,15400,0.056,551
2019-09-12T05:52:29,42.805,6.029,CST-1368DR,8014,11226,15400,0.056,551
2019-09-12T05:55:30,42.805,6.029,CST-1368DR,8014,11224,15398,0.056,550
2019-09-12T05:58:32,42.805,6.029,CST-1368DR,8014,11225,15399,0.056,551
2019-09-12T06:01:33,42.805,6.029,CST-1368DR,8014,11226,15400,0.056,551
2019-09-12T06:04:35,42.805,6.029,CST-1368DR,8014,11224,15398,0.056,551
2019-09-12T06:07:37,42.805,6.029,CST-1368DR,8014,11224,15398,0.056,551
2019-09-12T06:10:38,42.805,6.029,CST-1368DR,8014,11226,15400,0.056,551
2019-09-12T06:13:40,42.805,6.029,CST-1368DR,8014,11223,15395,0.057,551
2019-09-12T06:16:42,42.805,6.029,CST-1368DR,8014,11224,15398,0.056,551
2019-09-12T06:19:43,42.805,6.029,CST-1368DR,8014,11225,15399,0.056,551
2019-09-12T06:22:45,42.805,6.029,CST-1368DR,8014,11226,15400,0.056,551
2019-09-12T06:25:47,42.805,6.029,CST-1368DR,8014,11225,15399,0.056,551
2019-09-12T06:28:48,42.805,6.029,CST-1368DR,8014,11226,15400,0.056,551
2019-09-12T06:31:50,42.805,6.029,CST-1368DR,8014,11225,15399,0.056,551
2019-09-12T06:34:51,42.805,6.029,CST-1368DR,8013,11224,15400,0.056,551
2019-09-12T06:37:53,42.805,6.029,CST-1368DR,8013,11225,15401,0.055,551
2019-09-12T06:40:55,42.805,6.029,CST-1368DR,8013,11226,15401,0.055,551
2019-09-12T06:43:56,42.805,6.029,CST-1368DR,8013,11225,15400,0.056,551
2019-09-12T06:46:58,42.805,6.029,CST-1368DR,8013,11224,15399,0.056,551
2019-09-12T06:50:00,42.805,6.029,CST-1368DR,8013,11224,15399,0.056,551
2019-09-12T06:53:02,42.805,6.029,CST-1368DR,8013,11226,15401,0.055,551
2019-09-12T06:56:03,42.805,6.029,CST-1368DR,8013,11225,15401,0.055,551
2019-09-12T06:59:05,42.805,6.029,CST-1368DR,8013,11224,15400,0.056,551
2019-09-12T07:02:07,42.805,6.029,CST-1368DR,8013,11224,15399,0.056,551
2019-09-12T07:05:08,42.805,6.029,CST-1368DR,8013,11225,15401,0.055,551
2019-09-12T07:08:10,42.805,6.029,CST-1368DR,8013,11225,15401,0.055,551
2019-09-12T07:11:12,42.805,6.029,CST-1368DR,8013,11224,15399,0.056,551
2019-09-12T07:14:13,42.805,6.029,CST-1368DR,8013,11224,15399,0.056,551
2019-09-12T07:17:15,42.805,6.029,CST-1368DR,8013,11223,15397,0.056,551
2019-09-12T07:20:17,42.805,6.029,CST-1368DR,8013,11223,15398,0.056,551
2019-09-12T07:23:18,42.805,6.029,CST-1368DR,8013,11224,15399,0.056,551
2019-09-12T07:26:20,42.805,6.029,CST-1368DR,8013,11223,15398,0.056,550
2019-09-12T07:29:21,42.805,6.029,CST-1368DR,8013,11223,15398,0.056,551
2019-09-12T07:32:23,42.805,6.029,CST-1368DR,8013,11225,15400,0.056,551
2019-09-12T07:35:25,42.805,6.029,CST-1368DR,8013,11224,15400,0.056,551
2019-09-12T07:38:26,42.805,6.029,CST-1368DR,8013,11224,15400,0.056,551
2019-09-12T07:41:28,42.805,6.029,CST-1368DR,8013,11224,15399,0.056,551
2019-09-12T07:44:30,42.805,6.029,CST-1368DR,8013,11224,15399,0.056,551
2019-09-12T07:47:31,42.805,6.029,CST-1368DR,8013,11222,15397,0.056,551
2019-09-12T07:50:33,42.805,6.029,CST-1368DR,8013,11224,15399,0.056,551
2019-09-12T07:53:35,42.805,6.029,CST-1368DR,8013,11224,15399,0.056,551
2019-09-12T07:56:36,42.805,6.029,CST-1368DR,8013,11224,15399,0.056,551
2019-09-12T07:59:38,42.805,6.029,CST-1368DR,8013,11224,15399,0.056,551
2019-09-12T08:02:40,42.805,6.029,CST-1368DR,8013,11223,15397,0.056,551
2019-09-12T08:05:41,42.805,6.029,CST-1368DR,8013,11224,15399,0.056,551
2019-09-12T08:08:43,42.805,6.029,CST-1368DR,8013,11224,15400,0.056,550
2019-09-12T08:11:44,42.805,6.029,CST-1368DR,8013,11223,15398,0.056,551
2019-09-12T08:14:46,42.805,6.029,CST-1368DR,8013,11223,15398,0.056,551
2019-09-12T08:17:48,42.805,6.029,CST-1368DR,8013,11224,15399,0.056,551
2019-09-12T08:20:50,42.805,6.029,CST-1368DR,8013,11224,15399,0.056,551
2019-09-12T08:23:51,42.805,6.029,CST-1368DR,8013,11223,15398,0.056,551
2019-09-12T08:26:53,42.805,6.029,CST-1368DR,8013,11222,15396,0.057,551
2019-09-12T08:29:55,42.805,6.029,CST-1368DR,8013,11224,15400,0.056,551
2019-09-12T08:32:56,42.805,6.029,CST-1368DR,8013,11223,15398,0.056,550
2019-09-12T08:35:58,42.805,6.029,CST-1368DR,8013,11224,15399,0.056,551
2019-09-12T08:39:00,42.805,6.029,CST-1368DR,8013,11223,15398,0.056,551
2019-09-12T08:42:01,42.805,6.029,CST-1368DR,8013,11224,15399,0.056,551
2019-09-12T08:45:03,42.805,6.029,CST-1368DR,8013,11223,15398,0.056,551
2019-09-12T08:48:05,42.805,6.029,CST-1368DR,8013,11224,15399,0.056,551
2019-09-12T08:51:06,42.805,6.029,CST-1368DR,8013,11223,15398,0.056,551
2019-09-12T08:54:08,42.805,6.029,CST-1368DR,8013,11224,15399,0.056,551
2019-09-12T08:57:10,42.805,6.029,CST-1368DR,8013,11222,15397,0.056,551
2019-09-12T09:00:11,42.805,6.029,CST-1368DR,8013,11222,15397,0.056,551
2019-09-12T09:03:13,42.805,6.029,CST-1368DR,8013,11222,15396,0.057,551
2019-09-12T09:06:14,42.805,6.029,CST-1368DR,8013,11220,15394,0.057,551
2019-09-12T09:09:16,42.805,6.029,CST-1368DR,8013,11222,15397,0.056,551
2019-09-12T09:12:18,42.805,6.029,CST-1368DR,8013,11224,15399,0.056,551
2019-09-12T09:15:19,42.805,6.029,CST-1368DR,8013,11223,15398,0.056,551
2019-09-12T09:18:21,42.805,6.029,CST-1368DR,8013,11221,15395,0.057,551
2019-09-12T09:21:23,42.805,6.029,CST-1368DR,8013,11225,15400,0.056,551
2019-09-12T09:24:24,42.805,6.029,CST-1368DR,8013,11222,15397,0.056,551
2019-09-12T09:27:26,42.805,6.029,CST-1368DR,8013,11224,15399,0.056,550
2019-09-12T09:30:28,42.805,6.029,CST-1368DR,8013,11224,15399,0.056,551
2019-09-12T09:33:29,42.805,6.029,CST-1368DR,8013,11224,15399,0.056,551
2019-09-12T09:36:31,42.805,6.029,CST-1368DR,8013,11223,15397,0.056,551
2019-09-12T09:39:32,42.805,6.029,CST-1368DR,8013,11223,15398,0.056,551
2019-09-12T09:42:34,42.805,6.029,CST-1368DR,8013,11223,15398,0.056,550
2019-09-12T09:45:36,42.805,6.029,CST-1368DR,8013,11223,15397,0.056,551
2019-09-12T09:48:37,42.805,6.029,CST-1368DR,8013,11222,15397,0.056,551
2019-09-12T09:51:39,42.805,6.029,CST-1368DR,8013,11223,15398,0.056,551
2019-09-12T09:54:41,42.805,6.029,CST-1368DR,8013,11223,15398,0.056,551
2019-09-12T09:57:42,42.805,6.029,CST-1368DR,8012,11223,15399,0.056,551
2019-09-12T10:00:44,42.805,6.029,CST-1368DR,8013,11222,15396,0.057,551
2019-09-12T10:03:46,42.805,6.029,CST-1368DR,8013,11222,15397,0.056,551
2019-09-12T10:06:48,42.805,6.029,CST-1368DR,8013,11224,15399,0.056,551
2019-09-12T10:09:49,42.805,6.029,CST-1368DR,8013,11223,15397,0.056,550
2019-09-12T10:12:51,42.805,6.029,CST-1368DR,8013,11224,15399,0.056,551
2019-09-12T10:15:52,42.805,6.029,CST-1368DR,8012,11223,15400,0.056,551
2019-09-12T10:18:54,42.805,6.029,CST-1368DR,8012,11224,15401,0.055,551
2019-09-12T10:21:56,42.805,6.029,CST-1368DR,8012,11224,15400,0.056,551
2019-09-12T10:24:57,42.805,6.029,CST-1368DR,8012,11222,15399,0.056,551
2019-09-12T10:27:59,42.805,6.029,CST-1368DR,8012,11223,15400,0.056,551
2019-09-12T10:31:01,42.805,6.029,CST-1368DR,8012,11223,15399,0.056,551
2019-09-12T10:34:02,42.805,6.029,CST-1368DR,8012,11223,15400,0.056,550
2019-09-12T10:37:04,42.805,6.029,CST-1368DR,8012,11223,15400,0.056,551
2019-09-12T10:40:06,42.805,6.029,CST-1368DR,8012,11222,15398,0.056,551
2019-09-12T10:43:07,42.805,6.029,CST-1368DR,8012,11223,15399,0.056,551
2019-09-12T10:46:09,42.805,6.029,CST-1368DR,8012,11223,15400,0.056,551
2019-09-12T10:49:10,42.805,6.029,CST-1368DR,8012,11223,15400,0.056,551
2019-09-12T10:52:12,42.805,6.029,CST-1368DR,8012,11223,15399,0.056,551
2019-09-12T10:55:14,42.805,6.029,CST-1368DR,8012,11223,15399,0.056,551
2019-09-12T10:58:15,42.805,6.029,CST-1368DR,8012,11223,15399,0.056,551
2019-09-12T11:01:17,42.805,6.029,CST-1368DR,8012,11223,15400,0.056,550
2019-09-12T11:04:19,42.805,6.029,CST-1368DR,8012,11223,15399,0.056,551
2019-09-12T11:07:20,42.805,6.029,CST-1368DR,8012,11223,15400,0.056,551
2019-09-12T11:10:22,42.805,6.029,CST-1368DR,8012,11223,15400,0.056,551
2019-09-12T11:13:24,42.805,6.029,CST-1368DR,8012,11222,15399,0.056,551
2019-09-12T11:16:25,42.805,6.029,CST-1368DR,8012,11223,15400,0.056,551
2019-09-12T11:19:27,42.805,6.029,CST-1368DR,8012,11222,15398,0.056,551
2019-09-12T11:22:28,42.805,6.029,CST-1368DR,8012,11224,15400,0.056,551
2019-09-12T11:25:30,42.805,6.029,CST-1368DR,8012,11222,15398,0.056,551
2019-09-12T11:28:32,42.805,6.029,CST-1368DR,8012,11223,15400,0.056,551
2019-09-12T11:31:33,42.805,6.029,CST-1368DR,8009,10900,14962,0.171,551
2019-09-12T11:34:35,42.805,6.029,CST-1368DR,8012,11223,15399,0.056,551
2019-09-12T11:37:37,42.805,6.029,CST-1368DR,8012,11224,15400,0.056,551
2019-09-12T11:40:38,42.805,6.029,CST-1368DR,8012,11223,15399,0.056,551
2019-09-12T11:43:40,42.805,6.029,CST-1368DR,8012,11222,15398,0.056,551
2019-09-12T11:46:42,42.805,6.029,CST-1368DR,8012,11222,15398,0.056,551
2019-09-12T11:49:43,42.805,6.029,CST-1368DR,8012,11223,15399,0.056,551
2019-09-12T11:52:45,42.805,6.029,CST-1368DR,8011,11222,15400,0.056,551
2019-09-12T11:55:47,42.805,6.029,CST-1368DR,8011,11222,15400,0.056,551
2019-09-12T11:58:48,42.805,6.029,CST-1368DR,8012,11221,15397,0.056,551
2019-09-12T12:01:50,42.805,6.029,CST-1368DR,8012,11222,15398,0.056,551
2019-09-12T12:04:51,42.805,6.029,CST-1368DR,8012,11220,15396,0.057,551
2019-09-12T12:07:53,42.805,6.029,CST-1368DR,8011,11221,15398,0.056,551
2019-09-12T12:10:55,42.805,6.029,CST-1368DR,8012,11222,15398,0.056,551
2019-09-12T12:13:56,42.805,6.029,CST-1368DR,8012,11222,15398,0.056,551
2019-09-12T12:16:58,42.805,6.029,CST-1368DR,8012,11222,15398,0.056,550
2019-09-12T12:20:00,42.805,6.029,CST-1368DR,8012,11220,15396,0.057,551
2019-09-12T12:23:01,42.805,6.029,CST-1368DR,8011,11222,15400,0.056,551
2019-09-12T12:26:03,42.805,6.029,CST-1368DR,8011,11223,15401,0.055,551
2019-09-12T12:29:05,42.805,6.029,CST-1368DR,8011,11221,15398,0.056,551
2019-09-12T12:32:06,42.805,6.029,CST-1368DR,8011,11222,15400,0.056,551
2019-09-12T12:35:08,42.805,6.029,CST-1368DR,8011,11222,15400,0.056,551
2019-09-12T12:38:09,42.805,6.029,CST-1368DR,8011,11222,15400,0.056,551
2019-09-12T12:41:11,42.805,6.029,CST-1368DR,8011,11222,15399,0.056,551
2019-09-12T12:44:13,42.805,6.029,CST-1368DR,8011,11220,15398,0.056,551
2019-09-12T12:47:14,42.805,6.029,CST-1368DR,8011,11222,15400,0.056,551
2019-09-12T12:50:16,42.805,6.029,CST-1368DR,8011,11222,15400,0.056,551
2019-09-12T12:53:18,42.805,6.029,CST-1368DR,8011,11221,15399,0.056,551
2019-09-12T12:56:19,42.805,6.029,CST-1368DR,8011,11221,15399,0.056,551
2019-09-12T12:59:21,42.805,6.029,CST-1368DR,8011,11221,15398,0.056,551
2019-09-12T13:02:23,42.805,6.029,CST-1368DR,8011,11222,15400,0.056,551
2019-09-12T13:05:24,42.805,6.029,CST-1368DR,8011,11222,15400,0.056,551
2019-09-12T13:08:26,42.805,6.029,CST-1368DR,8011,11223,15401,0.055,551
2019-09-12T13:11:27,42.805,6.029,CST-1368DR,8011,11222,15400,0.056,551
2019-09-12T13:14:29,42.805,6.029,CST-1368DR,8011,11222,15399,0.056,551
2019-09-12T13:17:31,42.805,6.029,CST-1368DR,8011,11221,15398,0.056,551
2019-09-12T13:20:32,42.805,6.029,CST-1368DR,8011,11221,15399,0.056,551
2019-09-12T13:23:34,42.805,6.029,CST-1368DR,8011,11220,15398,0.056,550
2019-09-12T13:26:36,42.805,6.029,CST-1368DR,8011,11220,15398,0.056,551
2019-09-12T13:29:37,42.805,6.029,CST-1368DR,8011,11221,15399,0.056,551
2019-09-12T13:32:39,42.805,6.029,CST-1368DR,8011,11220,15397,0.056,551
2019-09-12T13:35:41,42.805,6.029,CST-1368DR,8011,11220,15398,0.056,551
2019-09-12T13:38:42,42.805,6.029,CST-1368DR,8011,11220,15398,0.056,551
2019-09-12T13:41:44,42.805,6.029,CST-1368DR,8011,11220,15397,0.056,550
2019-09-12T13:44:45,42.805,6.029,CST-1368DR,8011,11220,15398,0.056,551
2019-09-12T13:47:47,42.805,6.029,CST-1368DR,8011,11221,15398,0.056,551
2019-09-12T13:50:49,42.805,6.029,CST-1368DR,8011,11222,15400,0.056,551
2019-09-12T13:53:50,42.805,6.029,CST-1368DR,8011,11220,15397,0.056,551
2019-09-12T13:56:52,42.805,6.029,CST-1368DR,8011,11220,15397,0.056,551
2019-09-12T13:59:54,42.805,6.029,CST-1368DR,8011,11219,15396,0.057,551
2019-09-12T14:02:55,42.805,6.029,CST-1368DR,8011,11221,15398,0.056,551
2019-09-12T14:05:57,42.805,6.029,CST-1368DR,8011,11220,15398,0.056,550
2019-09-12T14:08:59,42.805,6.029,CST-1368DR,8011,11221,15398,0.056,551
2019-09-12T14:12:00,42.805,6.029,CST-1368DR,8010,11220,15399,0.056,551
2019-09-12T14:15:02,42.805,6.029,CST-1368DR,8010,11217,15395,0.057,550
2019-09-12T14:18:04,42.805,6.029,CST-1368DR,8010,11218,15396,0.057,551
2019-09-12T14:21:05,42.805,6.029,CST-1368DR,8010,11220,15400,0.056,551
2019-09-12T14:24:07,42.805,6.029,CST-1368DR,8010,11220,15399,0.056,551
2019-09-12T14:27:08,42.805,6.029,CST-1368DR,8010,11220,15399,0.056,551
2019-09-12T14:30:10,42.805,6.029,CST-1368DR,8010,11221,15400,0.056,551
2019-09-12T14:33:12,42.805,6.029,CST-1368DR,8010,11220,15399,0.056,551
2019-09-12T14:36:13,42.805,6.029,CST-1368DR,8010,11220,15399,0.056,551
2019-09-12T14:39:15,42.805,6.029,CST-1368DR,8010,11220,15399,0.056,551
2019-09-12T14:42:17,42.805,6.029,CST-1368DR,8010,11220,15399,0.056,551
2019-09-12T14:45:18,42.805,6.029,CST-1368DR,8010,11220,15399,0.056,551
2019-09-12T14:48:20,42.805,6.029,CST-1368DR,8010,11220,15400,0.056,551
2019-09-12T14:51:21,42.805,6.029,CST-1368DR,8010,11220,15400,0.056,551
2019-09-12T14:54:23,42.805,6.029,CST-1368DR,8010,11220,15399,0.056,551
2019-09-12T14:57:25,42.805,6.029,CST-1368DR,8010,11220,15399,0.056,551
2019-09-12T15:00:26,42.805,6.029,CST-1368DR,8010,11220,15398,0.056,551
2019-09-12T15:03:28,42.805,6.029,CST-1368DR,8010,11220,15400,0.056,550
2019-09-12T15:06:30,42.805,6.029,CST-1368DR,8010,11216,15393,0.058,551
2019-09-12T15:09:31,42.805,6.029,CST-1368DR,8010,11219,15397,0.056,550
2019-09-12T15:12:33,42.805,6.029,CST-1368DR,8010,11221,15400,0.056,551
2019-09-12T15:15:34,42.805,6.029,CST-1368DR,8010,11218,15396,0.057,551
2019-09-12T15:18:36,42.805,6.029,CST-1368DR,8010,11220,15399,0.056,551
2019-09-12T15:21:38,42.805,6.029,CST-1368DR,8010,11220,15399,0.056,551
2019-09-12T15:24:39,42.805,6.029,CST-1368DR,8010,11220,15400,0.056,551
2019-09-12T15:27:41,42.805,6.029,CST-1368DR,8010,11216,15394,0.057,551
2019-09-12T15:30:43,42.805,6.029,CST-1368DR,8010,11220,15398,0.056,551
2019-09-12T15:33:44,42.805,6.029,CST-1368DR,8010,11218,15396,0.057,551
2019-09-12T15:36:46,42.805,6.029,CST-1368DR,8010,11219,15398,0.056,551
2019-09-12T15:39:47,42.805,6.029,CST-1368DR,8010,11219,15397,0.056,551
2019-09-12T15:42:49,42.805,6.029,CST-1368DR,8010,11219,15398,0.056,551
2019-09-12T15:45:51,42.805,6.029,CST-1368DR,8010,11219,15398,0.056,551
2019-09-12T15:48:52,42.805,6.029,CST-1368DR,8010,11218,15397,0.056,551
2019-09-12T15:51:54,42.805,6.029,CST-1368DR,8010,11218,15397,0.056,551
2019-09-12T15:54:56,42.805,6.029,CST-1368DR,8010,11219,15398,0.056,551
2019-09-12T15:57:57,42.805,6.029,CST-1368DR,8010,11219,15397,0.056,550
2019-09-12T16:00:59,42.805,6.029,CST-1368DR,8010,11220,15399,0.056,551
2019-09-12T16:04:01,42.805,6.029,CST-1368DR,8010,11220,15398,0.056,551
2019-09-12T16:07:02,42.805,6.029,CST-1368DR,8010,11220,15399,0.056,551
2019-09-12T16:10:04,42.805,6.029,CST-1368DR,8010,11219,15397,0.056,551
2019-09-12T16:13:05,42.805,6.029,CST-1368DR,8010,11219,15397,0.056,551
2019-09-12T16:16:07,42.805,6.029,CST-1368DR,8010,11220,15398,0.056,551
2019-09-12T16:19:09,42.805,6.029,CST-1368DR,8010,11217,15395,0.057,551
2019-09-12T16:22:10,42.805,6.029,CST-1368DR,8010,11220,15400,0.056,551
2019-09-12T16:25:12,42.805,6.029,CST-1368DR,8010,11219,15398,0.056,550
2019-09-12T16:28:14,42.805,6.029,CST-1368DR,8010,11220,15399,0.056,551
2019-09-12T16:31:16,42.805,6.029,CST-1368DR,8010,11218,15396,0.057,551
2019-09-12T16:34:18,42.805,6.029,CST-1368DR,8010,11220,15398,0.056,551
2019-09-12T16:37:19,42.805,6.029,CST-1368DR,8010,11219,15398,0.056,551